Location: Bailleul
(50.3375°N, 2.8513°E)
Time: 14:43:06
(UTC+00:00)

NOSS 3-2 (A) - Pass Details

Date: 16 June 2021
Orbit: 774 x 1433 km, 63.4° (Epoch: 17 July)

Event Time Altitude Azimuth Distance (km) Brightness Sun altitude
Rises 21:10:11 0° 241° (WSW) 3,376 6.4 -8.3°
Reaches altitude 10° 21:12:33 10° 246° (WSW) 2,505 5.8 -8.5°
Maximum altitude 21:18:14 55° 324° (NW) 1,143 4.4 -9.1°
Drops below altitude 10° 21:24:55 10° 42° (NE) 2,928 6.2 -9.7°
Sets 21:27:53 0° 46° (NE) 3,996 6.8 -9.9°
